Weather reports worldwide

Advertisment
Aguilas, Spain (8432): temperature & dewpoint: 09.09.2019 10:00:00 - 15.09.2019 10:00:00 (CEST)Aguilas, Spain (8432): wind speed & gusts: 09.09.2019 10:00:00 - 15.09.2019 10:00:00 (CEST)Aguilas, Spain (8432): wind direction: 09.09.2019 10:00:00 - 15.09.2019 10:00:00 (CEST)Aguilas, Spain (8432): reduced air pressure: 09.09.2019 10:00:00 - 15.09.2019 10:00:00 (CEST)Aguilas, Spain (8432): visibility: 09.09.2019 10:00:00 - 15.09.2019 10:00:00 (CEST)Aguilas, Spain (8432): sunshine duration: 09.09.2019 10:00:00 - 15.09.2019 10:00:00 (CEST)Aguilas, Spain (8432): precipitation: 09.09.2019 10:00:00 - 15.09.2019 10:00:00 (CEST)
Date & Time tt [°C] td [°C] ff [km/h] ff [kn] fx [km/h] fx [kn] dd ppp [hPa] vv [km] sd [min] rr [mm]
15.09.2019 10:00:00 - - - - - - - - - - -
15.09.2019 09:00:00 23,7 18,2 0 0 8 4 N 1017,4 19 31 0,0
15.09.2019 08:00:00 22,2 17,5 4 2 7 4 NNW 1017,0 19 0 -
15.09.2019 07:00:00 22,7 17,4 6 4 10 5 N 1016,8 20 0 0,0
15.09.2019 06:00:00 22,3 17,6 4 2 8 4 NNW 1016,7 20 0 0,0
15.09.2019 05:00:00 23,0 17,7 5 3 10 5 NW 1017,0 20 0 0,0
15.09.2019 04:00:00 23,6 17,6 4 2 12 6 SSE 1017,1 20 0 0,0
15.09.2019 03:00:00 23,5 17,7 4 2 14 7 WSW 1017,9 20 0 0,0
15.09.2019 02:00:00 24,2 17,7 7 4 21 11 WNW 1018,6 20 0 -
15.09.2019 01:00:00 24,1 18,3 4 2 11 6 SW 1017,9 20 0 0,0
15.09.2019 00:00:00 24,9 17,9 4 2 31 17 NNW 1018,5 20 0 0,0
14.09.2019 23:00:00 25,0 17,7 8 4 23 12 ENE 1019,0 20 0 0,0
14.09.2019 22:00:00 25,4 17,6 9 5 23 13 ENE 1019,1 20 0 0,0
14.09.2019 21:00:00 25,3 18,0 10 5 25 13 ENE 1018,4 20 0 0,0
14.09.2019 20:00:00 25,8 17,7 11 6 29 15 ENE 1017,5 20 4 -
14.09.2019 19:00:00 26,5 17,5 14 8 37 20 ENE 1017,2 20 44 0,0
14.09.2019 18:00:00 26,3 17,6 16 9 40 22 ENE 1017,5 20 48 0,0
14.09.2019 17:00:00 26,8 17,3 21 12 44 24 ENE 1017,8 17 60 0,0
14.09.2019 16:00:00 27,2 17,4 15 8 42 23 ENE 1018,3 20 58 0,0
14.09.2019 15:00:00 26,5 17,0 23 13 55 30 ENE 1018,7 15 51 0,0
14.09.2019 14:00:00 25,7 16,6 26 14 48 26 ENE 1019,3 20 9 -
14.09.2019 13:00:00 25,1 16,6 24 13 44 24 ENE 1020,3 20 2 0,0
14.09.2019 12:00:00 24,3 16,0 18 10 33 18 E 1021,0 20 0 0,0
14.09.2019 11:00:00 23,9 15,9 9 5 29 16 E 1020,7 20 0 0,0
14.09.2019 10:00:00 23,5 14,5 12 7 30 16 ENE 1020,1 20 5 0,0
14.09.2019 09:00:00 22,3 14,9 12 6 22 12 E 1019,6 20 0 0,0
14.09.2019 08:00:00 21,0 15,3 9 5 21 11 ENE 1019,2 20 0 -
14.09.2019 07:00:00 19,2 15,9 4 2 9 5 N 1019,8 20 0 0,0
14.09.2019 06:00:00 19,1 16,0 6 4 14 7 NE 1019,7 20 0 0,0
14.09.2019 05:00:00 19,0 15,9 5 3 43 23 W 1020,0 20 0 8,6
14.09.2019 04:00:00 21,5 15,1 6 3 45 24 ESE 1021,0 0,8 0 4,2
14.09.2019 03:00:00 20,9 13,4 21 12 49 26 N 1021,3 20 0 0,0
14.09.2019 02:00:00 24,0 13,6 17 9 38 21 E 1020,8 20 0 -
14.09.2019 01:00:00 24,1 13,4 10 5 26 14 NNE 1021,8 20 0 0,0
14.09.2019 00:00:00 24,0 13,0 12 7 40 21 N 1022,6 20 0 0,0
13.09.2019 23:00:00 23,3 12,8 16 9 40 22 E 1021,0 20 0 0,0
13.09.2019 22:00:00 23,1 14,1 19 11 46 25 ENE 1021,4 20 0 0,0
13.09.2019 21:00:00 23,6 16,9 24 13 46 25 ENE 1021,0 16 0 0,0
13.09.2019 20:00:00 24,9 17,9 18 10 37 20 ENE 1020,1 20 0 -
13.09.2019 19:00:00 25,8 18,7 18 10 46 25 E 1019,6 19 30 0,0
13.09.2019 18:00:00 27,4 18,7 22 12 44 24 E 1019,3 17 60 0,0
13.09.2019 17:00:00 27,6 18,3 22 12 39 21 E 1019,4 20 60 0,0
13.09.2019 16:00:00 27,0 18,3 14 8 33 18 SE 1020,4 20 60 0,0
13.09.2019 15:00:00 27,3 17,8 21 12 42 23 ESE 1020,9 20 60 0,0
13.09.2019 14:00:00 27,2 19,1 22 12 44 24 E 1020,4 18 55 -
13.09.2019 13:00:00 26,7 17,2 22 12 37 20 E 1020,6 20 59 0,0
13.09.2019 12:00:00 26,2 18,1 16 9 29 16 E 1020,6 20 40 0,0
13.09.2019 11:00:00 24,0 17,9 9 5 17 9 E 1020,5 20 29 0,0
13.09.2019 10:00:00 20,8 16,4 9 5 23 12 NNW 1020,0 20 1 2,8
13.09.2019 09:00:00 21,1 15,2 9 5 25 13 NNW 1019,3 20 0 0,2
13.09.2019 08:00:00 20,1 14,7 15 8 37 20 NNW 1019,2 20 0 -
13.09.2019 07:00:00 20,2 15,0 9 5 29 16 NNW 1019,1 20 0 0,8
13.09.2019 06:00:00 20,2 15,0 12 7 31 17 NNW 1018,9 20 0 2,0
13.09.2019 05:00:00 21,2 14,1 14 7 39 21 NE 1020,2 20 0 0,0
13.09.2019 04:00:00 21,0 14,6 9 5 23 13 NE 1020,3 20 0 0,0
13.09.2019 03:00:00 20,5 15,3 22 12 44 24 NE 1020,4 20 0 1,2
13.09.2019 02:00:00 21,3 15,2 23 12 42 23 ENE 1020,7 20 0 -
13.09.2019 01:00:00 21,6 15,0 18 10 52 28 ENE 1020,7 20 0 0,2
13.09.2019 00:00:00 22,1 15,4 30 16 53 28 ENE 1021,5 20 0 0,0
12.09.2019 23:00:00 22,1 15,7 28 15 54 29 ENE 1021,6 20 0 0,0
12.09.2019 22:00:00 21,0 16,2 24 13 51 28 ENE 1022,0 20 0 0,0
12.09.2019 21:00:00 21,3 17,9 23 12 49 26 ENE 1021,3 20 0 8,2
12.09.2019 20:00:00 21,1 18,3 11 6 41 22 ENE 1020,8 1,7 0 -
12.09.2019 19:00:00 20,3 17,9 6 3 32 18 WSW 1020,9 1,7 0 23,0
12.09.2019 18:00:00 23,6 16,9 10 5 23 13 E 1021,1 20 14 0,0
12.09.2019 17:00:00 23,8 16,8 12 7 23 13 ENE 1021,3 20 11 0,2
12.09.2019 16:00:00 22,3 17,2 10 5 24 13 E 1021,6 20 0 0,8
12.09.2019 15:00:00 23,3 15,1 14 7 31 17 NE 1022,2 20 1 0,0
12.09.2019 14:00:00 23,8 16,3 11 6 30 16 ESE 1022,4 20 2 -
12.09.2019 13:00:00 26,2 14,6 11 6 28 15 E 1022,3 20 44 0,0
12.09.2019 12:00:00 24,8 14,5 9 5 24 13 ENE 1022,5 20 54 0,0
12.09.2019 11:00:00 23,6 14,3 13 7 25 13 E 1022,2 20 30 0,2
12.09.2019 10:00:00 22,8 14,1 16 9 28 15 ENE 1021,5 20 58 0,0
12.09.2019 09:00:00 21,1 14,7 1 1 12 7 SW 1021,4 20 25 0,0
12.09.2019 08:00:00 18,8 13,5 5 3 11 6 NNE 1020,2 20 0 -
12.09.2019 07:00:00 18,4 13,3 3 2 8 4 N 1019,5 20 0 0,0
12.09.2019 06:00:00 18,0 12,8 5 3 25 14 N 1019,1 20 0 0,0
12.09.2019 05:00:00 17,7 12,1 13 7 38 20 N 1018,4 20 0 1,4
12.09.2019 04:00:00 17,1 12,4 12 7 34 18 N 1019,1 15 0 4,0
12.09.2019 03:00:00 17,7 12,5 14 8 34 18 NNW 1019,3 13 0 1,2
12.09.2019 02:00:00 19,4 12,8 11 6 32 18 NE 1021,4 20 0 -
12.09.2019 01:00:00 20,7 11,3 5 3 24 13 NNE 1020,6 20 0 0,0
12.09.2019 00:00:00 20,5 11,7 13 7 29 16 ENE 1021,4 20 0 0,0
11.09.2019 23:00:00 20,5 12,4 14 8 27 15 NE 1021,2 20 0 0,0
11.09.2019 22:00:00 20,3 11,2 16 9 44 24 ENE 1020,7 20 0 0,0
11.09.2019 21:00:00 20,8 11,7 15 8 43 23 ENE 1020,1 20 0 0,0
11.09.2019 20:00:00 21,2 10,6 18 10 37 20 E 1019,1 20 0 -
11.09.2019 19:00:00 21,4 12,2 22 12 41 22 E 1018,4 20 3 0,0
11.09.2019 18:00:00 22,4 13,5 18 10 39 21 E 1017,4 20 18 2,0
11.09.2019 17:00:00 23,7 12,0 23 13 45 24 E 1016,6 20 12 0,0
11.09.2019 16:00:00 24,8 7,0 19 11 41 22 NE 1016,0 20 20 0,0
11.09.2019 15:00:00 23,9 8,3 14 8 34 19 NNE 1016,0 20 6 0,0
11.09.2019 14:00:00 23,3 7,4 8 5 24 13 NNE 1016,4 20 2 -
11.09.2019 13:00:00 20,9 7,8 8 4 29 16 NE 1016,8 20 0 0,0
11.09.2019 12:00:00 20,8 7,7 10 5 36 19 N 1017,0 20 0 0,0
11.09.2019 11:00:00 22,0 5,0 8 5 35 19 NE 1016,1 20 0 0,0
11.09.2019 10:00:00 21,5 4,1 14 7 33 18 N 1015,4 20 12 0,0
11.09.2019 09:00:00 20,5 4,1 9 5 21 11 NNW 1015,0 20 14 0,0
11.09.2019 08:00:00 19,2 3,8 10 6 23 13 NNW 1015,0 20 0 -
11.09.2019 07:00:00 19,2 3,4 11 6 21 12 NNW 1014,7 20 0 0,0
11.09.2019 06:00:00 19,2 3,4 10 6 32 18 NW 1014,1 20 0 0,0
11.09.2019 05:00:00 19,4 3,0 9 5 26 14 N 1014,2 20 0 0,0
11.09.2019 04:00:00 19,7 3,0 10 5 24 13 NNW 1014,1 20 0 0,0
11.09.2019 03:00:00 20,5 2,3 14 7 37 20 N 1014,3 20 0 0,0
11.09.2019 02:00:00 21,3 1,5 13 7 40 22 N 1014,2 20 0 -
11.09.2019 01:00:00 22,2 1,7 23 12 61 33 N 1013,8 20 0 0,0
11.09.2019 00:00:00 23,2 0,9 26 14 61 33 NNW 1013,3 13 0 0,0
10.09.2019 23:00:00 25,4 -1,4 8 4 23 12 NNE 1013,0 20 0 0,0
10.09.2019 22:00:00 26,0 -2,7 13 7 34 18 N 1012,5 20 0 0,0
10.09.2019 21:00:00 26,6 -4,2 13 7 34 19 N 1011,4 20 0 0,0
10.09.2019 20:00:00 27,9 -5,4 12 6 37 20 N 1010,6 20 31 -
10.09.2019 19:00:00 29,2 -5,7 14 7 40 21 N 1009,6 20 60 0,0
10.09.2019 18:00:00 30,3 -2,2 18 10 40 22 NNW 1008,8 20 59 0,0
10.09.2019 17:00:00 30,5 -1,0 17 9 44 24 NNW 1008,4 20 46 0,0
10.09.2019 16:00:00 30,1 1,5 23 12 49 26 N 1008,0 20 60 0,0
10.09.2019 15:00:00 29,7 3,6 22 12 45 24 N 1008,4 20 60 0,0
10.09.2019 14:00:00 29,8 3,8 17 9 45 24 N 1009,7 20 58 -
10.09.2019 13:00:00 29,4 3,4 19 10 46 25 NNW 1008,9 20 23 0,0
10.09.2019 12:00:00 29,5 0,2 23 12 - - NW 1009,7 20 - -
10.09.2019 11:00:00 - - - - - - - - - - -
10.09.2019 10:00:00 - - - - - - - - - - -
10.09.2019 09:00:00 - - - - - - - - - - -
10.09.2019 08:00:00 - - - - - - - - - - -
10.09.2019 07:00:00 - - - - - - - - - - -
10.09.2019 06:00:00 - - - - - - - - - - -
10.09.2019 05:00:00 - - - - - - - - - - -
10.09.2019 04:00:00 - - - - - - - - - - -
10.09.2019 03:00:00 - - - - - - - - - - -
10.09.2019 02:00:00 - - - - - - - - - - -
10.09.2019 01:00:00 - - - - - - - - - - -
10.09.2019 00:00:00 - - - - - - - - - - -
09.09.2019 23:00:00 - - - - - - - - - - -
09.09.2019 22:00:00 - - - - - - - - - - -
09.09.2019 21:00:00 - - - - - - - - - - -
09.09.2019 20:00:00 - - - - - - - - - - -
09.09.2019 19:00:00 - - - - - - - - - - -
09.09.2019 18:00:00 - - - - - - - - - - -
09.09.2019 17:00:00 - - - - - - - - - - -
09.09.2019 16:00:00 - - - - - - - - - - -
09.09.2019 15:00:00 - - - - - - - - - - -
09.09.2019 14:00:00 - - - - - - - - - - -
09.09.2019 13:00:00 - - - - - - - - - - -
09.09.2019 12:00:00 - - - - - - - - - - -
09.09.2019 11:00:00 - - - - - - - - - - -
09.09.2019 10:00:00 - - - - - - - - - - -

tt = temperature
td = dewpoint
ff = wind speed
fx = gusts
dd = wind direction
ppp = reduced air pressure
vv = visibility
sd = sunshine duration
rr = precipitation

Next stations